カタログに戻る

ARIANE 44L DEB

運用中HEO
NORAD 24724·DEBRIS·🇫🇷 France

打ち上げ Jan 15, 1991 から Guiana Space Centre

Loading…

次のパス (今後24時間)

TLE

最新Source: Space-Track

元期: Sep 14, 2026, 05:20 UTC

1 24724U 91003G   26257.22267805  .00000455  00000-0  16415-2 0  9999
2 24724   5.6730 281.3607 6739523   8.8627 358.8123  2.85924530307216

AllMySatでARIANE 44L DEBをリアルタイム追跡

Download on the App Store